Weather History for K1V4 - July, 2014

Change the Weather History Date:

Thursday, July 31, 2014

  Actual Average Record
Temperature  
Mean Temperature 62 °F 70 °F  
Max Temperature 71 °F 81 °F 94 °F (1959)
Min Temperature 52 °F 58 °F 41 °F (1964)
Degree Days  
Heating Degree Days 3 0  
Month to date heating degree days 18 10  
Since 1 June heating degree days 87 87  
Since 1 July heating degree days 18 15  
Cooling Degree Days 0 5  
Month to date cooling degree days 111 169  
Year to date cooling degree days 162 277  
Since 1 June cooling degree days 158 259  
Growing Degree Days 11 (Base 50)    
Moisture  
Dew Point 54 °F    
Average Humidity 81    
Maximum Humidity 100    
Minimum Humidity 61    
Precipitation  
Precipitation 0.01 in 0.15 in 2.40 in (1962)
Month to date precipitation 6.69 4.12  
Year to date precipitation 25.66 21.54  
Sea Level Pressure  
Sea Level Pressure 30.05 in    
Wind  
Wind Speed - (North)    
Max Wind Speed -    
Max Gust Speed -    
T = Trace of Precipitation, MM = Missing Value Source: NWS Daily Summary

Daily Weather History Graph

Daily Weather History Graph

Search for Another Location

Airport or City:

Trip Planner

Search our weather history database for the weather conditions in past years. The results will help you decide how hot, cold, wet, or windy it might be!

Date:

Astronomy

Jul. 31, 2014 Rise Set
Actual Time 5:33 AM EDT 8:14 PM EDT
Civil Twilight 5:00 AM EDT 8:47 PM EDT
Nautical Twilight 4:18 AM EDT 9:29 PM EDT
Astronomical Twilight 3:29 AM EDT 10:17 PM EDT
Moon 10:10 AM EDT (7/31) 10:12 PM EDT (7/31)
Length of Visible Light 15h 47m
Length of Day
14h 40m
Waxing Crescent, 19% of the Moon is Illuminated
Jul 31
Waxing Crescent
Aug 3
First Quarter
Aug 10
Full
Aug 17
Last Quarter
Aug 25
New

Hourly Weather History & Observations

Time (EDT) Temp. Dew Point Humidity Pressure Visibility Wind Dir Wind Speed Gust Speed Precip Events Conditions
12:54 AM 53.1 °F 52.0 °F 96% 30.01 in - North - - N/A   Unknown
1:54 AM 53.1 °F 51.1 °F 93% 30.02 in - North - - N/A   Unknown
2:54 AM 53.1 °F 51.1 °F 93% 30.02 in - North - - N/A   Unknown
3:54 AM 52.0 °F 50.0 °F 93% 30.01 in - North - - N/A   Unknown
4:54 AM 52.0 °F 50.0 °F 93% 30.02 in - North - - N/A   Unknown
5:54 AM 52.0 °F 51.1 °F 97% 30.03 in - North - - N/A   Unknown
6:54 AM 53.1 °F 51.1 °F 93% 30.04 in - North - - N/A   Unknown
7:54 AM 55.0 °F 52.0 °F 89% 30.06 in - North - - N/A   Unknown
8:54 AM 57.0 °F 53.1 °F 87% 30.06 in - North - - N/A   Unknown
9:54 AM 59.0 °F 55.0 °F 87% 30.05 in - North - - N/A   Unknown
10:54 AM 64.9 °F 55.0 °F 70% 30.04 in - North - - N/A   Unknown
11:54 AM 64.0 °F 55.9 °F 75% 30.04 in - North - - N/A   Unknown
12:54 PM 64.9 °F 57.0 °F 75% 30.04 in - North - - N/A   Unknown
1:54 PM 66.0 °F 57.9 °F 75% 30.02 in - North - - N/A   Unknown
2:54 PM 66.0 °F 55.0 °F 68% 30.05 in - North - - N/A   Unknown
3:54 PM 66.0 °F 55.0 °F 68% 30.04 in - North - - 0.01 in   Unknown
4:54 PM 69.1 °F 55.0 °F 61% 30.04 in - North - - N/A   Unknown
6:54 PM 70.0 °F 57.0 °F 63% 30.04 in - North - - N/A   Unknown
8:54 PM 62.1 °F 59.0 °F 90% 30.09 in - North - - N/A   Unknown
9:54 PM 60.1 °F 57.9 °F 93% 30.10 in - North - - N/A   Unknown
10:54 PM 57.9 °F 55.9 °F 93% 30.10 in - North - - N/A   Unknown
11:54 PM 57.0 °F 55.9 °F 96% 30.12 in - North - - N/A   Unknown